• In Belarus
  • List of Countries
  • For 7 days
  • Water Temperature
  • Satellite Maps
  • Weather Map
  • Weather Widgets
  • user-avatar
    Login

    Hourly Weather Kitzbuhel

    Today, 23 June, Friday

    Time Temperature Precipitation Wind Pressure Humidity
    00:00 +17°C° 0.5 mm 2 mps 678 mmHg 82%
    01:00 +17°C° 0 mm 2 mps 678 mmHg 89%
    02:00 +16°C° 1.4 mm 2 mps 678 mmHg 89%
    03:00 +16°C° 1.4 mm 2 mps 678 mmHg 88%
    04:00 +16°C° 1.4 mm 3 mps 678 mmHg 88%
    05:00 +17°C° 1 mm 3 mps 678 mmHg 87%
    06:00 +19°C° 1 mm 3 mps 679 mmHg 85%
    07:00 +20°C° 1 mm 2 mps 679 mmHg 84%
    08:00 +21°C° 0.4 mm 3 mps 680 mmHg 78%
    09:00 +24°C° 0.4 mm 3 mps 680 mmHg 72%
    10:00 +25°C° 0.4 mm 3 mps 680 mmHg 65%
    11:00 +25°C° 0.6 mm 3 mps 680 mmHg 66%
    12:00 +26°C° 0.6 mm 3 mps 680 mmHg 66%
    13:00 +26°C° 0.6 mm 3 mps 680 mmHg 67%
    14:00 +25°C° 0.9 mm 3 mps 680 mmHg 70%
    15:00 +25°C° 0.9 mm 3 mps 680 mmHg 73%
    16:00 +25°C° 0.9 mm 2 mps 680 mmHg 76%
    17:00 +24°C° 0.8 mm 2 mps 680 mmHg 81%
    18:00 +23°C° 0.8 mm 2 mps 680 mmHg 86%
    19:00 +22°C° 0.8 mm 1 mps 680 mmHg 90%
    20:00 +20°C° 0.3 mm 1 mps 680 mmHg 92%
    21:00 +18°C° 0.3 mm 1 mps 679 mmHg 93%
    22:00 +15°C° 0.3 mm 1 mps 679 mmHg 95%
    23:00 +15°C° 0 mm 1 mps 679 mmHg 95%

    Tomorrow, 24 June, Saturday

    Time Temperature Precipitation Wind Pressure Humidity
    00:00 +15°C° 0 mm 1 mps 679 mmHg 96%
    01:00 +14°C° 0 mm 1 mps 680 mmHg 96%
    02:00 +14°C° 0 mm 1 mps 679 mmHg 97%
    03:00 +14°C° 0 mm 1 mps 679 mmHg 97%
    04:00 +14°C° 0 mm 1 mps 679 mmHg 97%
    05:00 +14°C° 0 mm 0 mps 679 mmHg 94%
    06:00 +16°C° 0 mm 0 mps 680 mmHg 91%
    07:00 +18°C° 0 mm 0 mps 680 mmHg 88%
    08:00 +19°C° 0 mm 0 mps 680 mmHg 82%
    09:00 +23°C° 0 mm 1 mps 681 mmHg 76%
    10:00 +24°C° 0 mm 1 mps 681 mmHg 70%
    11:00 +24°C° 0.3 mm 1 mps 681 mmHg 71%
    12:00 +25°C° 0.3 mm 2 mps 680 mmHg 71%
    13:00 +25°C° 0.3 mm 2 mps 680 mmHg 72%
    14:00 +25°C° 0.8 mm 2 mps 680 mmHg 74%
    15:00 +24°C° 0.8 mm 2 mps 679 mmHg 75%
    16:00 +24°C° 0.8 mm 2 mps 679 mmHg 77%
    17:00 +23°C° 1.1 mm 2 mps 679 mmHg 82%
    18:00 +22°C° 1.1 mm 1 mps 679 mmHg 87%
    19:00 +21°C° 1.1 mm 1 mps 679 mmHg 92%
    20:00 +20°C° 1.5 mm 1 mps 679 mmHg 93%
    21:00 +18°C° 1.5 mm 1 mps 679 mmHg 95%
    22:00 +15°C° 1.5 mm 0 mps 678 mmHg 97%
    23:00 +15°C° 1.4 mm 0 mps 678 mmHg 97%

    Day after tomorrow, 25 June, Sunday

    Time Temperature Precipitation Wind Pressure Humidity
    00:00 +16°C° 1.4 mm 1 mps 678 mmHg 97%
    01:00 +16°C° 1.4 mm 1 mps 678 mmHg 97%
    02:00 +16°C° 0.7 mm 1 mps 678 mmHg 97%
    03:00 +16°C° 0.7 mm 1 mps 678 mmHg 98%
    04:00 +15°C° 0.7 mm 1 mps 678 mmHg 98%
    05:00 +16°C° 0.5 mm 1 mps 678 mmHg 97%
    06:00 +16°C° 0.5 mm 1 mps 678 mmHg 96%
    07:00 +18°C° 0.5 mm 1 mps 678 mmHg 96%
    08:00 +18°C° 0.5 mm 1 mps 678 mmHg 93%
    09:00 +18°C° 0.5 mm 1 mps 678 mmHg 89%
    10:00 +19°C° 0.5 mm 1 mps 678 mmHg 86%
    11:00 +19°C° 0.3 mm 2 mps 678 mmHg 81%
    12:00 +20°C° 0.3 mm 2 mps 678 mmHg 76%
    13:00 +21°C° 0.3 mm 2 mps 678 mmHg 71%
    14:00 +21°C° 0.2 mm 2 mps 678 mmHg 71%
    15:00 +21°C° 0.2 mm 2 mps 678 mmHg 71%
    16:00 +21°C° 0.2 mm 2 mps 678 mmHg 70%
    17:00 +20°C° 0.2 mm 2 mps 678 mmHg 76%
    18:00 +19°C° 0.2 mm 2 mps 678 mmHg 81%
    19:00 +19°C° 0.2 mm 1 mps 678 mmHg 86%
    20:00 +16°C° 0 mm 1 mps 678 mmHg 89%
    21:00 +14°C° 0 mm 1 mps 678 mmHg 93%
    22:00 +12°C° 0 mm 1 mps 678 mmHg 96%
    23:00 +12°C° 0 mm 1 mps 677 mmHg 97%

    26 June, Monday

    Time Temperature Precipitation Wind Pressure Humidity
    00:00 +11°C° 0 mm 1 mps 677 mmHg 97%
    01:00 +11°C° 0 mm 1 mps 677 mmHg 97%
    02:00 +10°C° 0 mm 0 mps 677 mmHg 97%
    03:00 +9°C° 0 mm 0 mps 677 mmHg 97%
    04:00 +9°C° 0 mm 0 mps 677 mmHg 97%
    05:00 +11°C° 0 mm 0 mps 677 mmHg 93%
    06:00 +14°C° 0 mm 0 mps 678 mmHg 89%
    07:00 +16°C° 0 mm 0 mps 679 mmHg 84%
    08:00 +20°C° 0 mm 1 mps 679 mmHg 78%
    09:00 +21°C° 0 mm 1 mps 679 mmHg 72%
    10:00 +23°C° 0 mm 1 mps 679 mmHg 66%
    11:00 +23°C° 0 mm 2 mps 679 mmHg 65%
    12:00 +24°C° 0 mm 2 mps 679 mmHg 64%
    13:00 +25°C° 0 mm 2 mps 678 mmHg 63%
    14:00 +25°C° 0.3 mm 2 mps 678 mmHg 66%
    15:00 +24°C° 0.3 mm 2 mps 678 mmHg 69%
    16:00 +24°C° 0.3 mm 2 mps 678 mmHg 72%
    17:00 +23°C° 0.5 mm 2 mps 677 mmHg 77%
    18:00 +21°C° 0.5 mm 2 mps 677 mmHg 82%
    19:00 +20°C° 0.5 mm 2 mps 677 mmHg 88%
    20:00 +19°C° 0.4 mm 2 mps 677 mmHg 90%
    21:00 +18°C° 0.4 mm 2 mps 677 mmHg 92%
    22:00 +17°C° 0.4 mm 2 mps 677 mmHg 95%
    23:00 +16°C° 0.4 mm 2 mps 676 mmHg 94%

    27 June, Tuesday

    Time Temperature Precipitation Wind Pressure Humidity
    00:00 +16°C° 0.4 mm 2 mps 676 mmHg 94%
    01:00 +16°C° 0.4 mm 2 mps 676 mmHg 93%
    02:00 +16°C° 0.1 mm 2 mps 676 mmHg 93%
    03:00 +16°C° 0.1 mm 2 mps 676 mmHg 93%
    04:00 +16°C° 0.1 mm 2 mps 675 mmHg 93%
    05:00 +17°C° 0.1 mm 2 mps 676 mmHg 91%
    06:00 +18°C° 0.1 mm 2 mps 676 mmHg 89%
    07:00 +19°C° 0.1 mm 2 mps 676 mmHg 87%
    08:00 +21°C° 0.1 mm 1 mps 676 mmHg 79%
    09:00 +23°C° 0.1 mm 1 mps 677 mmHg 71%
    10:00 +25°C° 0.1 mm 1 mps 677 mmHg 64%
    11:00 +25°C° 0.6 mm 1 mps 677 mmHg 65%
    12:00 +26°C° 0.6 mm 1 mps 677 mmHg 66%
    13:00 +26°C° 0.6 mm 1 mps 677 mmHg 67%
    14:00 +26°C° 0.9 mm 1 mps 677 mmHg 69%
    15:00 +25°C° 0.9 mm 1 mps 676 mmHg 71%
    16:00 +25°C° 0.9 mm 1 mps 676 mmHg 72%
    17:00 +24°C° 1 mm 1 mps 676 mmHg 78%
    18:00 +24°C° 1 mm 1 mps 676 mmHg 83%
    19:00 +23°C° 1 mm 1 mps 676 mmHg 89%
    20:00 +21°C° 0.8 mm 1 mps 676 mmHg 90%
    21:00 +19°C° 0.8 mm 1 mps 676 mmHg 91%
    22:00 +18°C° 0.8 mm 1 mps 676 mmHg 92%
    23:00 +18°C° 0.7 mm 1 mps 675 mmHg 92%

    28 June, Wednesday

    Time Temperature Precipitation Wind Pressure Humidity
    00:00 +18°C° 0.7 mm 1 mps 675 mmHg 92%
    01:00 +17°C° 0.7 mm 2 mps 675 mmHg 92%
    02:00 +16°C° 0.5 mm 2 mps 675 mmHg 92%
    03:00 +16°C° 0.5 mm 2 mps 675 mmHg 92%
    04:00 +15°C° 0.5 mm 1 mps 674 mmHg 93%
    05:00 +17°C° 0 mm 2 mps 675 mmHg 90%
    06:00 +18°C° 0 mm 2 mps 675 mmHg 88%
    07:00 +19°C° 0 mm 2 mps 675 mmHg 86%
    08:00 +21°C° 0 mm 2 mps 674 mmHg 78%
    09:00 +24°C° 0 mm 2 mps 674 mmHg 70%
    10:00 +26°C° 0 mm 3 mps 674 mmHg 62%
    11:00 +26°C° 0 mm 3 mps 673 mmHg 60%
    12:00 +27°C° 0 mm 3 mps 673 mmHg 57%
    13:00 +28°C° 0 mm 4 mps 672 mmHg 55%
    14:00 +28°C° 0 mm 4 mps 672 mmHg 57%
    15:00 +27°C° 0 mm 4 mps 671 mmHg 60%
    16:00 +27°C° 0 mm 4 mps 670 mmHg 63%
    17:00 +25°C° 0.1 mm 4 mps 670 mmHg 68%
    18:00 +22°C° 0.1 mm 4 mps 670 mmHg 74%
    19:00 +21°C° 0.1 mm 3 mps 669 mmHg 80%
    20:00 +19°C° 0.2 mm 3 mps 670 mmHg 84%
    21:00 +17°C° 0.2 mm 2 mps 670 mmHg 88%
    22:00 +15°C° 0.2 mm 2 mps 670 mmHg 92%
    23:00 +15°C° 0.8 mm 2 mps 669 mmHg 93%
    Show more